Location: Brotuna
(46.2000°N, 22.6000°E)
Time: 00:10:42
(UTC+00:00)

Terra - Pass Details

Date: 09 April 2020
Orbit: 701 x 703 km, 98.2° (Epoch: 04 June)

Event Time Altitude Azimuth Distance (km) Brightness Sun altitude
Exits shadow 20:29:30 55° 339° (NNW) 851 2.4 -29.4°
Drops below altitude 10° 20:33:13 10° 345° (NNW) 2,182 5.2 -29.8°
Sets 20:35:29 0° 346° (NNW) 3,105 6.2 -30.0°
